Aérodrome :
LOGIN :

S'inscrire | Disclaimer

   EN    FR    IT 

 










Légende :    VFR   VFR Marginal   IFR   IFR Intensif   IFR Très Intensif
Visi : 
Plafond : 
>= 8 km
>= 3000ft
5 à 8 km
1000 à 3000 ft
1500m à 5 km
500 à 1000 ft
800 à 1500m
200 à 500 ft
< 800m
< 200 ft
Symboles :   Orages  Brouillard  Fortes neiges  Fortes précipitations  Vent > 20 kt
SIGMETs :   Divers  Orages  Givrage  Turbulence  Onde Orograph.  Cendres Volcan.







- Altitude de l'aérodrome : 17 ft
- Code IATA : MPL
- Voir les cartes d'approche


LFMT - Montpellier Méditerranée

DERNIER METAR :
  • 181500Z AUTO 06005KT 020V080 CAVOK 10/M02 Q1015 BECMG 32012KT

METARs EXPIRÉS :
  • 181430Z AUTO 05006KT CAVOK 10/M02 Q1015 BECMG 32012KT
  • 181400Z AUTO 33006KT 300V020 CAVOK 11/M02 Q1015 NOSIG
  • 181330Z AUTO 32005KT CAVOK 11/M01 Q1015 NOSIG
  • 181300Z AUTO 33007KT 310V010 CAVOK 11/M01 Q1015 NOSIG
  • 181230Z AUTO 34007KT 300V030 CAVOK 11/M01 Q1015 NOSIG

TAF TAF LFMT
Valide du 18 à 15h jusqu'au 19 à 15h UTC


181400Z 1815/1915 32012KT CAVOK
BECMG 1820/1822 VRB02KT
ATIS : +33 4 67 13 11 70
Pas de NOTAMs connus pour ce terrain.



MET'MAP, la Météo Aéronautique d'un coup d'oeil ! - Copyright ORBIFLY Décembre 2007 - Disclaimer

ORBIFLY MET'MAP TEAM :

Programmation & Développement : Alexandra Zaïnal
Conception & Développement : Baudouin d'Aumeries
Co-Programmation & Développement : Marc-Olivier Méhu
Soutien technique & logistique : Manuel Goepfert

Contact : metmap@orbifly.com




SOURCES & CREDITS :

   NOAA